Location: Newark
(12.4436°N, 0.6167°W)
Time: 12:21:33
(UTC+00:00)

deb Explorer IX - Pass Details

Date: 13 December 2019
Orbit: 548 x 1101 km, 38.8° (Epoch: 24 January)

Event Time Altitude Azimuth Distance (km) Brightness Sun altitude
Rises 13:20:09 0° 251° (WSW) 2,795 ? 48.9°
Reaches altitude 10° 13:22:29 10° 261° (W) 1,950 ? 48.7°
Maximum altitude 13:26:34 33° 326° (NNW) 1,093 ? 48.1°
Drops below altitude 10° 13:31:11 10° 31° (NNE) 2,223 ? 47.5°
Sets 13:34:01 0° 40° (NE) 3,251 ? 47.2°
